Home   Weather   Cardiff   Past weeks

Flag for United Kingdom Past Weather in Cardiff, Wales, United Kingdom — Yesterday and Last 2 Weeks

Now
48 °F

Overcast.


Feels Like: 46 °F
Forecast: N/A
Wind: 5 mph from Northeast

Location: Wales Airport

Current Time: Jan 16, 2017 at 10:01:44 pm

Latest Report: Jan 16, 2017 at 9:20 pm


Visibility: N/A

Pressure: 30.42 "Hg

Humidity: 82%

Dew Point: 43 °F

Location of CardiffLocation

Past Weather in Cardiff — Graph

°F

Cardiff Temperature Yesterday

Maximum temperature yesterday: 50 °F (at 2:20 pm)
Minimum temperature yesterday: 43 °F (at 12:20 am)
Average temperature yesterday: 46 °F

High & Low Weather Summary for the Past Weeks

 TemperatureHumidityPressure
High52 °F (Jan 7, 11:20 am)100% (Jan 3, 5:50 am)30.60 "Hg (Jan 3, 5:50 am)
Low27 °F (Jan 3, 5:20 am)62% (Jan 11, 1:20 pm)29.47 "Hg (Jan 12, 2:20 pm)
Average43 °F90%30.23 "Hg
* Reported Jan 1 8:20 pm — Jan 16 8:50 pm, Cardiff, Weather by CustomWeather, © 2017

Note: Actual official high and low records may vary slightly from our data, if they occured in-between our weather recording intervals... More about our weather records

Advertising

Cardiff Weather History for the Previous 24 Hours

Scroll right to see more
 ConditionsComfort  
Time TempWeatherWind HumidityBarometerVisibility
8:50 pm
Mon, Jan 16
48 °FOvercast.6 mph82%30.42 "HgN/A
8:20 pm48 °FOvercast.6 mph87%30.39 "HgN/A
7:50 pm48 °FOvercast.6 mph87%30.39 "HgN/A
7:20 pm48 °FOvercast.8 mph87%30.39 "HgN/A
6:50 pm48 °FOvercast.5 mph87%30.39 "HgN/A
6:20 pm48 °FOvercast.5 mph87%30.36 "HgN/A
5:50 pm48 °FOvercast.3 mph87%30.36 "HgN/A
5:20 pm48 °FOvercast.6 mph94%30.36 "HgN/A
4:50 pm50 °FOvercast.5 mph88%30.36 "HgN/A
4:20 pm50 °FOvercast.5 mph88%30.36 "HgN/A
3:50 pm50 °FOvercast.5 mph88%30.36 "HgN/A
3:20 pm52 °FPartly sunny.9 mph82%30.33 "HgN/A
2:50 pm52 °FPassing clouds.10 mph82%30.33 "HgN/A
2:20 pm52 °FLight rain. Scattered clouds.8 mph82%30.33 "HgN/A
1:50 pm52 °FScattered clouds.9 mph82%30.33 "HgN/A
1:20 pm52 °FPassing clouds.8 mph82%30.33 "HgN/A
12:50 pm52 °FCool.8 mph88%30.33 "HgN/A
12:20 pm52 °FCool.9 mph88%30.33 "HgN/A
11:50 am52 °FCool.10 mph88%30.33 "HgN/A
11:20 am50 °FScattered clouds.12 mph94%30.36 "HgN/A
10:50 am50 °FPartly sunny.7 mph94%30.36 "HgN/A
10:20 am50 °FPartly sunny.6 mph94%30.33 "HgN/A
9:50 am48 °FPassing clouds.6 mph94%30.33 "HgN/A
9:20 am46 °FLight rain. Passing clouds.6 mph100%30.33 "HgN/A
8:50 am46 °FScattered clouds.6 mph100%30.33 "HgN/A
8:20 am46 °FPassing clouds.5 mph100%30.33 "HgN/A
7:50 am48 °FOvercast.6 mph94%30.33 "HgN/A
7:20 am46 °FPassing clouds.7 mph100%30.33 "HgN/A
6:50 am48 °FPassing clouds.6 mph94%30.33 "HgN/A
6:20 am46 °FPassing clouds.7 mph100%30.33 "HgN/A
5:50 am46 °FPassing clouds.6 mph100%30.30 "HgN/A
5:20 am46 °FPassing clouds.7 mph100%30.30 "HgN/A
4:50 am46 °FMostly cloudy.9 mph100%30.30 "HgN/A
4:20 am46 °FMostly cloudy.8 mph100%30.30 "HgN/A
3:50 am46 °FOvercast.7 mph100%30.30 "HgN/A
3:20 am46 °FMostly cloudy.8 mph100%30.30 "HgN/A
2:50 am48 °FPassing clouds.9 mph94%30.30 "HgN/A
2:20 am48 °FPassing clouds.10 mph94%30.30 "HgN/A
1:50 am48 °FCool.10 mph94%30.30 "HgN/A
1:20 am48 °FPassing clouds.12 mph94%30.30 "HgN/A
12:20 am48 °FPassing clouds.6 mph94%30.30 "HgN/A
11:50 pm
Sun, Jan 15
48 °FOvercast.7 mph94%30.30 "HgN/A
11:20 pm48 °FPassing clouds.7 mph94%30.30 "HgN/A
10:50 pm48 °FPassing clouds.8 mph94%30.30 "HgN/A
10:20 pm48 °FPassing clouds.5 mph94%30.30 "HgN/A
Weather by CustomWeather, © 2017

See weather overviewHow to use our weather pages